Hourly Data Report for July 24, 2021

SWAN RIVER RCS
MANITOBA
Current Station Operator: ECCC - MSC

52°06'53.900" N
101°13'58.500" W
334.80 m
504K80K
71443
WEQ

Download Data

Hourly Data (July 2021)
Hourly Data Report for July 24, 2021
TIME
LST
Temp Definition
°C
Dew Point Definition
°C
Rel Hum Definition
%
Precip. Amount Definition
mm

Wind Dir Definition
10's deg

Wind Spd Definition
km/h
Visibility Definition
km
Stn Press Definition
kPa
Hmdx Definition


Wind Chill Definition


Weather Definition


00:00 15.0 8.1 63 0.0 22 13   96.83     LegendNANA
01:00 15.5 7.6 59 0.0 25 10   96.88     LegendNANA
02:00 14.6 7.9 64 0.0 23 12   96.92     LegendNANA
03:00 13.7 7.9 68 0.0 23 16   96.96     LegendNANA
04:00 12.8 8.2 74 0.0 22 14   96.95     LegendNANA
05:00 12.1 8.5 79 0.0 22 14   96.98     LegendNANA
06:00 13.1 9.2 77 0.0 23 12   97.02     LegendNANA
07:00 14.9 10.1 73 0.0 22 14   97.05     LegendNANA
08:00 18.3 11.5 65 0.0 25 17   97.07     LegendNANA
09:00 20.7 12.0 57 0.0 25 19   97.09     LegendNANA
10:00 22.5 11.7 50 0.0 25 21   97.11 25   LegendNANA
11:00 24.0 11.6 46 0.0 27 26   97.10 26   LegendNANA
12:00 24.9 11.1 42 0.0 26 29   97.08 27   LegendNANA
13:00 25.7 10.6 39 0.0 27 30   97.06 27   LegendNANA
14:00 25.1 10.9 41 0.0 29 21   97.07 27   LegendNANA
15:00 25.3 10.5 39 0.0 28 22   97.05 27   LegendNANA
16:00 27.0 9.4 33 0.0 28 22   97.02 28   LegendNANA
17:00 25.0 10.6 40 0.0 28 19   97.01 27   LegendNANA
18:00 24.6 11.1 43 0.0 27 18   96.99 26   LegendNANA
19:00 24.8 10.6 41 0.0 26 15   96.96 26   LegendNANA
20:00 23.5 10.9 45 0.0 25 11   96.96 25   LegendNANA
21:00 20.3 10.5 53 0.0 25 9   97.00     LegendNANA
22:00 19.8 9.1 50 0.0 25 13   97.05     LegendNANA
23:00 18.0 9.3 57 0.0 31 10   97.11     LegendNANA

Notes on Data Quality.

Legend

  • E = Estimated
  • M = Missing
  • NA = Not Available*
  • [empty] = Indicates an unobserved value
Date modified: